Location: Moscow
(38.3171°N, 79.0889°W)
Time: 23:08:03
(UTC+00:00)

Resurs 1-3 - Pass Details

Date: 07 November 2025
Orbit: 613 x 615 km, 97.7° (Epoch: 14 December)

Event Time Altitude Azimuth Distance (km) Brightness Sun altitude
Rises 23:41:51 0° 161° (SSE) 2,870 6.9 -18.2°
Reaches altitude 10° 23:44:02 10° 159° (SSE) 1,969 6.0 -18.7°
Maximum altitude 23:48:17 71° 76° (ENE) 652 3.4 -19.5°
Drops below altitude 10° 23:52:35 10° 353° (N) 1,983 6.2 -20.3°
Sets 23:54:47 0° 351° (N) 2,892 7.1 -20.8°
